Wind_Speed
5 5 4 2 0 2 7 6 13 9 11 15 21 17 16 12 5 9 22 17 16 18 16 17 16 17 16 16 15 15 14 14 15 15 15 16 16 16 17 17 17 17 17 15 16 16 16 18 19
9 8 2 5 2 6 6 8 11 19 20 35 32 31 27 19 29 28 28 17 15 18 18 17 15 16 15 15 13 13 13 13 14 15 16 16 16 16 17 16 16 16 14 14 14 15 17 19 22
2 3 5 2 1 5 4 8 15 23 28 30 18 22 14 24 20 25 26 23 18 17 18 17 17 15 14 12 12 12 12 13 12 12 14 14 16 16 16 15 15 15 14 13 14 14 16 19 22
7 6 6 1 7 11 13 12 21 21 32 34 26 15 25 27 27 32 29 22 16 18 18 17 16 15 13 12 11 12 13 11 12 14 15 16 16 16 16 17 16 16 15 15 15 16 17 21 24
5 5 2 11 14 18 14 23 26 17 19 31 35 19 26 27 32 31 27 18 16 21 19 17 15 14 14 13 13 13 13 12 13 16 18 18 18 18 18 18 17 17 18 18 18 18 19 22 23
8 7 3 8 13 9 14 21 26 27 28 32 35 32 30 34 33 27 21 16 16 20 18 18 15 14 14 15 14 14 13 15 17 19 20 20 20 19 19 18 19 19 19 20 21 21 21 22 21
5 2 8 8 14 13 12 19 25 25 30 20 32 26 29 29 26 23 27 17 13 18 18 17 16 15 16 16 19 22 24 25 25 24 23 22 21 20 19 19 19 20 21 22 23 24 24 23 22
5 1 1 5 6 11 20 19 27 36 26 39 36 12 23 34 30 27 29 16 12 13 18 18 16 17 18 22 28 29 29 28 27 25 24 21 19 19 20 19 21 22 22 22 22 22 22 21 20
5 1 1 8 9 18 26 20 24 30 41 28 14 33 35 32 29 29 24 24 16 12 11 16 18 21 22 27 28 24 19 16 14 15 17 20 19 20 21 21 22 20 18 17 16 14 12 14 16
2 2 7 10 10 18 26 22 23 18 25 31 35 32 34 30 28 29 25 26 24 16 13 17 20 24 23 26 23 17 14 13 14 13 15 16 18 18 16 13 13 12 10 8 9 9 6 3 3
5 5 6 14 18 23 22 21 25 28 20 33 39 37 32 32 30 26 26 24 24 19 14 15 15 20 19 16 14 17 11 16 11 12 11 7 7 5 8 10 11 9 9 6 9 10 18 18 3
3 14 17 17 24 22 14 20 19 29 31 36 36 35 32 28 30 27 26 24 24 20 16 15 12 14 15 11 5 11 13 7 14 12 6 5 7 2 3 7 8 5 13 10 11 8 4 0 8
3 8 18 22 20 17 16 10 21 33 36 35 32 31 31 30 26 26 22 23 25 22 20 14 11 15 10 9 9 12 8 13 10 11 11 8 5 7 10 8 6 9 8 6 9 9 5 3 9
24 14 21 20 12 20 15 16 25 30 34 31 29 30 30 29 27 21 22 24 25 19 24 19 17 17 17 13 12 11 4 10 11 10 3 9 3 8 7 4 5 5 4 0 7 9 9 8 3
15 6 12 14 14 13 16 13 13 27 29 27 24 24 31 25 25 28 25 23 21 19 25 21 19 17 16 16 13 11 10 7 6 3 4 3 11 6 5 9 3 5 2 3 6 7 6 8 12
9 4 3 9 16 4 9 11 18 27 26 24 23 21 24 32 31 31 26 24 23 22 24 19 18 15 13 19 18 13 7 6 5 6 3 3 2 8 5 7 6 3 3 3 9 7 6 6 8
6 4 5 8 16 10 6 13 22 27 24 22 22 18 27 22 18 22 20 20 23 21 22 15 16 14 14 23 19 9 7 11 9 6 7 8 6 5 11 3 4 10 8 7 6 9 6 6 6
13 7 4 5 3 12 9 13 16 26 26 24 22 20 22 21 23 18 16 20 21 26 20 13 19 13 12 19 15 11 14 12 6 11 8 8 5 4 5 9 2 6 8 5 10 12 13 15 11
18 11 7 2 6 6 10 9 13 22 23 24 28 25 29 26 25 20 17 20 20 24 22 21 19 18 13 14 14 14 10 7 6 7 4 9 4 2 8 10 4 7 7 4 8 13 13 12 8
19 10 4 12 7 6 12 3 10 12 22 27 27 28 31 27 24 23 21 22 19 24 22 24 18 22 17 13 13 7 5 12 12 8 13 12 12 7 7 8 11 13 13 11 11 14 14 13 9
19 23 12 14 16 5 11 3 10 5 1 23 28 31 32 32 29 26 26 25 21 21 23 31 22 21 19 15 11 9 10 7 5 7 6 12 15 14 10 10 13 17 17 18 10 12 10 12 15
9 26 19 23 12 7 4 4 5 8 6 9 27 29 32 34 32 30 30 27 27 24 27 29 29 26 20 18 14 11 6 8 8 6 7 6 10 14 10 11 11 16 12 17 14 16 16 15 15
6 9 22 26 12 8 4 5 7 6 10 7 19 31 36 42 38 37 33 30 30 25 24 28 30 27 21 19 16 13 12 10 11 10 7 7 9 12 11 12 18 19 18 13 15 18 17 19 21
10 4 9 8 6 3 13 6 5 7 13 8 8 22 32 40 37 37 33 31 33 27 22 25 24 23 19 19 17 16 14 12 16 11 13 8 7 9 12 9 12 15 13 14 15 17 18 20 21
9 4 4 4 2 8 14 3 7 16 11 16 9 9 10 28 40 37 37 35 35 32 32 31 28 27 21 17 16 13 15 16 16 12 8 8 2 6 6 6 7 7 10 13 16 16 14 14 17
7 6 5 4 3 7 19 8 5 16 18 8 12 19 17 13 28 37 29 30 32 32 33 29 26 26 17 20 13 11 12 12 6 4 2 2 5 2 2 2 5 7 10 12 14 17 16 16 16
7 6 10 6 5 3 3 6 8 5 11 14 13 17 13 10 28 36 34 35 31 26 20 23 25 24 17 15 14 16 14 11 10 8 6 5 5 7 9 12 12 11 13 16 18 20 19 20 21
8 6 4 4 3 4 4 6 9 14 11 11 11 16 20 26 39 33 31 27 26 25 29 28 26 24 22 20 18 16 12 7 6 5 3 6 6 10 13 18 19 20 22 23 24 25 25 25 25
3 4 4 1 3 1 2 3 14 19 20 20 22 21 23 29 31 36 35 34 28 26 24 21 17 19 19 15 12 9 6 4 4 5 6 8 12 15 18 19 20 22 24 24 25 27 28 29 31
8 7 4 5 9 4 5 2 16 17 21 27 23 23 23 26 27 29 30 29 25 20 17 15 14 13 11 8 8 6 3 1 7 11 12 16 16 16 19 21 24 24 26 27 29 31 31 32 34
Wind_Direction
218 195 163 303 244 106 89 104 94 109 76 90 81 78 87 38 76 129 133 136 137 129 124 117 112 109 107 103 98 97 98 98 99 102 104 105 102 101 104 105 107 108 106 102 105 108 112 111 111
192 129 234 226 148 112 116 131 109 99 111 90 90 87 71 72 103 121 130 143 139 127 125 118 116 110 105 100 95 97 98 100 103 107 103 105 109 107 106 105 107 109 108 107 107 104 106 116 121
207 240 254 198 119 109 111 139 121 107 106 109 104 88 96 122 116 133 133 137 136 127 126 121 116 110 101 95 95 95 96 95 93 114 117 108 107 112 111 109 110 110 106 106 105 106 111 117 129
340 272 249 47 175 149 151 173 109 102 103 106 102 68 105 129 126 133 141 142 147 140 130 120 114 105 100 101 94 96 102 91 96 102 113 109 110 111 112 110 108 105 103 101 101 105 112 119 125
25 296 226 132 107 120 121 127 125 129 117 99 105 115 114 121 124 132 143 146 139 139 130 124 112 104 102 99 99 101 102 95 95 100 111 110 111 111 110 109 106 103 102 100 99 100 107 120 124
196 279 342 111 135 128 133 137 126 115 109 105 108 109 112 128 134 144 141 138 140 134 129 119 107 99 97 98 96 96 92 98 97 102 106 109 110 109 107 105 103 102 100 97 95 95 103 111 115
117 278 155 94 99 100 124 114 117 117 122 115 125 119 132 132 132 132 132 148 123 135 127 116 108 101 98 93 95 98 98 97 97 98 100 102 102 101 99 98 97 97 96 94 92 92 95 100 98
68 332 251 114 141 102 140 127 114 127 120 124 126 143 139 142 144 135 136 138 120 127 127 116 105 106 100 101 105 104 98 94 94 97 96 95 95 95 96 94 95 95 93 90 94 97 103 102 102
355 278 63 153 114 108 105 110 122 129 132 142 139 141 139 143 138 144 137 146 135 136 119 119 113 107 105 113 113 106 97 95 95 98 97 88 93 97 93 90 98 87 84 82 83 85 99 114 111
95 195 86 119 122 129 123 129 137 128 133 121 129 139 142 147 142 144 146 150 148 161 140 120 118 112 110 117 113 107 91 100 100 97 103 98 100 103 85 71 79 67 72 67 58 55 51 356 162
240 259 146 138 146 109 119 142 140 120 126 139 140 147 151 153 155 157 158 155 164 172 153 150 126 118 118 140 112 91 99 107 113 106 112 111 112 90 78 74 67 60 46 31 94 63 83 51 16
266 95 100 104 108 119 156 139 140 129 134 137 142 151 153 162 168 167 162 158 158 166 136 147 127 144 123 144 121 129 124 127 139 133 134 138 131 195 143 43 15 67 45 93 54 55 135 127 316
238 130 106 92 113 141 104 112 114 124 132 139 148 155 164 168 168 168 168 163 164 164 155 170 149 151 157 159 164 184 163 125 141 123 139 141 129 118 139 127 90 79 62 43 32 356 82 295 239
325 102 98 102 120 89 81 93 108 124 132 141 158 168 174 176 167 157 156 165 169 166 159 161 160 160 167 150 136 139 130 143 146 125 152 150 136 150 168 106 80 107 235 218 50 337 347 98 332
319 308 111 125 110 126 119 109 114 129 136 152 175 185 188 175 176 183 183 170 168 173 168 176 190 179 188 172 140 138 118 116 150 135 312 301 172 158 87 195 74 117 128 36 16 1 11 62 186
349 21 63 154 129 83 130 133 135 141 147 162 173 179 139 149 157 168 174 174 180 178 183 186 196 199 183 169 161 154 171 237 197 252 299 345 252 208 195 70 44 330 247 260 354 351 357 356 19
353 344 359 324 147 142 116 141 143 150 161 177 183 172 144 152 163 157 165 176 184 183 186 197 189 186 163 156 161 164 188 173 185 250 263 278 311 263 208 227 324 352 310 241 300 308 306 306 309
219 260 234 242 163 146 144 145 148 163 178 177 170 165 160 152 163 171 183 178 185 192 191 190 171 187 179 166 168 174 178 177 224 221 254 278 310 300 282 255 339 332 5 304 309 300 289 292 288
197 214 203 150 268 62 26 118 162 185 181 172 170 178 162 167 168 172 175 183 194 187 199 178 183 195 203 180 169 152 155 197 238 238 202 203 200 297 300 318 282 350 316 340 303 311 329 298 275
184 183 167 47 350 87 108 323 300 281 193 177 173 177 165 166 174 175 174 178 181 188 193 182 188 196 206 198 167 178 224 226 240 245 234 250 252 244 254 289 299 288 286 291 310 337 319 338 321
194 194 188 147 96 72 98 325 280 269 321 194 177 180 166 169 170 174 174 177 177 180 186 177 191 192 205 201 175 220 230 251 234 228 250 277 257 238 250 272 279 291 297 291 287 312 312 310 309
235 204 174 150 137 164 222 213 289 277 289 328 174 173 170 171 176 176 177 181 188 194 192 195 199 209 210 187 189 215 234 237 249 268 271 281 242 260 272 246 287 274 275 296 288 288 289 296 300
273 9 158 191 158 130 224 94 246 282 246 270 199 180 176 178 179 183 186 190 196 196 195 202 203 203 189 194 193 207 217 236 247 279 309 313 277 274 286 267 298 280 279 278 278 278 279 281 289
322 17 324 308 134 201 194 147 257 204 211 231 171 177 180 178 179 185 188 190 198 199 197 190 196 199 195 185 207 225 228 232 255 268 269 284 282 267 293 287 301 283 272 286 295 296 293 292 291
299 350 314 321 281 240 155 213 231 217 204 216 171 190 158 182 183 185 187 189 193 192 191 191 184 199 201 208 205 221 239 248 262 273 270 255 233 48 356 347 286 289 299 300 307 307 308 311 304
231 193 171 263 310 314 150 152 226 199 189 165 194 180 210 321 187 188 175 173 173 173 185 193 184 192 208 212 220 219 221 224 234 184 189 122 112 137 233 304 308 306 294 298 304 312 317 317 313
250 272 235 245 258 301 119 23 18 40 129 133 158 201 211 79 128 137 150 150 155 163 166 170 175 181 184 188 186 172 162 159 156 167 179 196 200 223 273 291 299 303 302 303 306 307 308 305 304
171 238 354 341 288 262 159 170 144 141 134 158 124 124 119 107 105 115 122 127 138 143 144 155 166 169 162 159 163 161 166 181 179 196 228 250 264 289 299 306 307 312 312 310 306 304 302 301 297
318 273 282 149 162 234 347 308 153 142 127 114 113 118 105 98 106 105 110 113 122 133 142 149 158 164 172 178 180 186 203 213 232 255 282 300 305 307 306 306 309 313 313 311 307 302 301 297 296
188 243 227 131 280 213 175 65 57 93 113 115 105 94 96 100 113 116 117 128 127 131 140 148 154 163 167 153 123 108 105 13 324 307 309 311 316 323 323 324 324 323 320 317 314 313 310 304 299
Height
1516 1517 1518 1514 1523 1517 1519 1516 1506 1510 1514 1513 1515 1518 1523 1523 1526 1552 1552 1555 1558 1559 1560 1561 1562 1561 1562 1561 1562 1562 1563 1563 1563 1563 1563 1564 1565 1565 1565 1565 1565 1566 1567 1567 1567 1567 1567 1569 1570
1515 1514 1514 1513 1519 1527 1526 1509 1512 1511 1516 1516 1520 1521 1525 1537 1533 1544 1552 1556 1558 1559 1561 1562 1563 1563 1563 1563 1564 1565 1565 1565 1565 1565 1565 1566 1566 1566 1567 1567 1567 1567 1568 1568 1568 1567 1568 1569 1571
1516 1511 1515 1510 1511 1525 1527 1509 1509 1511 1514 1517 1522 1525 1530 1540 1544 1545 1553 1555 1557 1560 1562 1563 1564 1564 1565 1566 1566 1567 1567 1567 1567 1567 1567 1567 1568 1568 1569 1569 1569 1568 1568 1569 1569 1569 1570 1572 1574
1512 1497 1511 1514 1513 1505 1510 1509 1509 1513 1518 1518 1518 1529 1536 1541 1545 1550 1554 1557 1559 1561 1563 1564 1565 1565 1566 1567 1567 1568 1569 1569 1569 1568 1569 1569 1570 1571 1571 1572 1571 1570 1570 1571 1571 1572 1574 1575 1576
1506 1512 1515 1515 1505 1500 1502 1506 1509 1513 1518 1522 1520 1536 1539 1546 1549 1553 1555 1558 1560 1562 1564 1565 1566 1567 1568 1568 1569 1570 1571 1571 1571 1570 1570 1571 1573 1574 1574 1574 1573 1573 1572 1574 1576 1577 1578 1578 1580
1522 1515 1518 1516 1506 1500 1504 1506 1509 1513 1520 1526 1528 1535 1545 1550 1553 1555 1557 1559 1561 1563 1565 1567 1569 1569 1570 1570 1571 1572 1572 1572 1572 1572 1573 1574 1576 1576 1577 1577 1576 1577 1577 1578 1580 1581 1581 1582 1582
1516 1521 1512 1505 1506 1506 1504 1506 1511 1514 1522 1527 1533 1537 1549 1552 1554 1557 1560 1561 1563 1565 1566 1569 1570 1571 1572 1573 1573 1574 1575 1576 1576 1577 1578 1579 1579 1579 1580 1580 1581 1582 1583 1584 1584 1584 1585 1586 1587
1513 1518 1508 1503 1508 1509 1504 1507 1510 1512 1525 1530 1533 1543 1547 1552 1556 1560 1562 1563 1565 1567 1569 1571 1572 1573 1574 1575 1576 1578 1579 1579 1580 1581 1582 1583 1584 1584 1583 1584 1585 1587 1588 1588 1588 1588 1588 1589 1589
1512 1517 1511 1505 1503 1506 1507 1509 1515 1518 1521 1528 1533 1539 1547 1552 1557 1561 1563 1566 1567 1568 1571 1573 1574 1574 1576 1577 1578 1579 1580 1580 1581 1582 1584 1586 1587 1586 1588 1588 1590 1591 1592 1592 1592 1591 1590 1589 1590
1510 1517 1498 1494 1495 1502 1505 1508 1513 1518 1524 1532 1538 1546 1550 1553 1556 1559 1563 1566 1568 1569 1574 1576 1576 1577 1578 1581 1581 1580 1580 1580 1581 1583 1587 1589 1589 1589 1590 1592 1593 1594 1594 1593 1592 1592 1594 1596 1595
1508 1506 1495 1496 1497 1500 1505 1510 1513 1519 1529 1531 1535 1543 1549 1553 1555 1557 1561 1563 1567 1570 1574 1577 1578 1578 1578 1582 1583 1582 1582 1581 1585 1589 1592 1594 1593 1595 1592 1594 1597 1597 1596 1594 1591 1591 1597 1597 1597
1507 1495 1497 1500 1502 1506 1509 1511 1514 1519 1529 1534 1540 1544 1548 1552 1554 1556 1559 1563 1567 1572 1576 1578 1581 1580 1582 1583 1584 1583 1583 1583 1587 1592 1592 1590 1593 1597 1596 1597 1599 1598 1596 1595 1594 1596 1596 1598 1598
1502 1497 1499 1502 1505 1509 1512 1512 1516 1525 1531 1537 1543 1547 1548 1550 1554 1557 1560 1564 1568 1571 1576 1579 1581 1582 1583 1585 1584 1584 1584 1586 1590 1593 1595 1592 1595 1596 1595 1595 1598 1598 1597 1596 1600 1597 1595 1605 1608
1510 1499 1502 1506 1510 1513 1517 1523 1525 1534 1536 1540 1545 1546 1547 1549 1554 1559 1562 1565 1568 1572 1576 1579 1581 1583 1584 1586 1585 1586 1587 1587 1590 1594 1598 1599 1599 1597 1596 1595 1598 1600 1600 1600 1601 1602 1601 1606 1605
1512 1507 1505 1509 1512 1518 1521 1529 1533 1535 1538 1543 1545 1546 1547 1551 1555 1557 1561 1563 1566 1571 1576 1579 1581 1584 1586 1588 1588 1589 1588 1587 1588 1591 1596 1598 1600 1599 1599 1598 1599 1601 1602 1602 1603 1598 1597 1603 1601
1528 1519 1524 1510 1512 1519 1521 1541 1531 1536 1539 1542 1543 1544 1547 1552 1555 1558 1562 1566 1567 1569 1575 1579 1581 1584 1586 1588 1590 1591 1590 1590 1590 1591 1595 1596 1598 1599 1599 1599 1601 1602 1601 1600 1602 1599 1600 1600 1601
1537 1541 1535 1524 1508 1515 1522 1536 1531 1535 1540 1542 1543 1544 1547 1552 1555 1559 1563 1566 1567 1569 1574 1578 1580 1583 1586 1588 1590 1591 1592 1593 1595 1595 1595 1597 1597 1599 1601 1603 1602 1603 1601 1600 1599 1600 1602 1602 1603
1545 1547 1537 1534 1515 1510 1521 1528 1531 1534 1536 1539 1541 1544 1547 1550 1554 1558 1562 1564 1568 1570 1573 1576 1579 1581 1585 1588 1589 1591 1593 1596 1595 1595 1596 1597 1598 1599 1601 1601 1602 1601 1600 1598 1598 1599 1598 1598 1599
1523 1531 1528 1518 1520 1537 1532 1530 1532 1532 1533 1535 1537 1540 1544 1549 1552 1554 1559 1563 1567 1570 1572 1576 1579 1582 1584 1587 1590 1591 1593 1594 1595 1596 1596 1597 1599 1600 1599 1601 1601 1600 1599 1598 1597 1597 1596 1594 1595
1521 1527 1525 1535 1529 1543 1539 1542 1538 1532 1529 1531 1534 1538 1542 1548 1552 1555 1558 1562 1565 1568 1572 1575 1577 1580 1584 1587 1591 1594 1594 1594 1595 1595 1595 1596 1596 1596 1596 1598 1599 1598 1598 1599 1598 1597 1594 1594 1592
1513 1518 1518 1523 1535 1546 1542 1552 1536 1525 1529 1530 1531 1535 1540 1544 1549 1553 1556 1559 1563 1565 1569 1573 1576 1579 1582 1586 1587 1590 1591 1594 1594 1593 1594 1595 1593 1593 1591 1593 1593 1594 1594 1595 1594 1594 1592 1591 1591
1505 1488 1500 1525 1529 1561 1540 1569 1548 1528 1525 1532 1525 1530 1536 1539 1545 1550 1553 1556 1558 1561 1566 1569 1572 1575 1578 1582 1585 1587 1590 1590 1593 1591 1591 1589 1589 1589 1588 1589 1590 1591 1589 1590 1590 1589 1589 1588 1587
1487 1476 1492 1499 1509 1530 1544 1553 1538 1530 1521 1522 1522 1522 1524 1528 1534 1542 1549 1553 1556 1560 1562 1565 1567 1570 1572 1577 1581 1583 1585 1585 1588 1590 1590 1587 1588 1588 1589 1586 1589 1589 1587 1585 1585 1583 1583 1584 1583
1478 1480 1484 1484 1505 1534 1526 1530 1535 1526 1516 1517 1513 1517 1520 1526 1533 1540 1544 1549 1553 1559 1560 1565 1572 1574 1576 1570 1575 1579 1582 1582 1584 1587 1588 1587 1588 1589 1586 1585 1578 1585 1585 1584 1582 1579 1578 1578 1578
1485 1497 1536 1535 1532 1525 1507 1532 1526 1501 1508 1510 1510 1515 1521 1528 1528 1535 1540 1544 1550 1554 1558 1564 1566 1575 1577 1569 1572 1578 1580 1581 1584 1584 1585 1583 1583 1585 1583 1583 1581 1580 1581 1579 1577 1575 1573 1572 1572
1488 1496 1533 1541 1543 1520 1508 1517 1504 1489 1504 1509 1512 1514 1519 1530 1528 1534 1537 1542 1546 1551 1553 1559 1565 1569 1568 1569 1573 1576 1579 1580 1582 1583 1582 1582 1584 1584 1586 1585 1584 1583 1580 1577 1575 1572 1570 1568 1567
1486 1501 1484 1506 1498 1516 1505 1505 1500 1503 1505 1510 1512 1520 1528 1536 1524 1528 1535 1538 1544 1550 1554 1561 1562 1564 1566 1569 1572 1573 1575 1577 1579 1579 1579 1580 1581 1583 1583 1581 1580 1577 1575 1573 1570 1567 1565 1564 1563
1476 1474 1506 1509 1528 1529 1512 1508 1515 1508 1511 1516 1523 1530 1537 1537 1529 1534 1536 1541 1545 1550 1555 1559 1561 1562 1566 1568 1568 1571 1574 1575 1576 1577 1579 1580 1579 1580 1580 1579 1576 1573 1571 1569 1566 1564 1561 1559 1558
1482 1488 1485 1492 1506 1529 1533 1522 1490 1505 1511 1522 1534 1541 1538 1533 1534 1538 1541 1541 1545 1549 1555 1559 1563 1562 1565 1568 1568 1571 1572 1574 1576 1577 1575 1575 1575 1575 1574 1573 1571 1567 1566 1564 1561 1561 1558 1554 1551
1465 1477 1482 1516 1516 1503 1511 1529 1510 1515 1517 1513 1526 1532 1538 1539 1541 1545 1548 1549 1552 1554 1557 1560 1563 1564 1566 1568 1569 1570 1572 1571 1572 1574 1571 1572 1573 1570 1569 1566 1563 1562 1560 1558 1555 1552 1549 1546 1542